[[{"header":{"parameterUnit":"m.s-1","parameterCategory":1,"la1":30.2991,"la2":30.254,"lo1":-89.0895,"lo2":-89.0444,"dy":0.0017,"dx":0.0017,"nx":28,"ny":28,"refTime":"2025-03-24T09:00:00:Z","depth":0,"parameterNumber":2,"parameterNumberName":"U-component_of_WINDS"},"data":[0,0,0,0,0,0,0,0,0,0,0,0,0,0,0,0,0,0,0,0,0,0,0,0,0,0,0,0,0,0,0,0,0,0,0,0,0,0,0,0,0,0,0,0,0,0,0,0,0,0,0,0,0,0,0,0,0,0,-0.2657,-0.2658,0,-0.2687,-0.2688,-0.2688,-0.2699,-0.2699,-0.2699,-0.2699,-0.2731,-0.2732,-0.2733,0,0,0,0,0,0,0,0,0,0,0,0,0,-0.2611,-0.2611,-0.2657,-0.2658,-0.2658,-0.2687,-0.2688,-0.2688,-0.2699,-0.2699,-0.2699,-0.2699,-0.2731,-0.2732,-0.2733,0,0,0,0,0,0,0,0,0,0,0,0,0,-0.2635,-0.2612,-0.2657,-0.2667,-0.2668,-0.2687,-0.2688,-0.2688,-0.2699,-0.2699,-0.2699,-0.2699,-0.273,-0.2732,-0.2733,-0.2745,0,0,-0.2738,-0.2738,0,0,0,0,0,0,0,0,-0.2633,-0.2637,-0.2665,-0.2666,-0.2668,-0.2689,-0.2683,-0.2707,-0.2699,-0.2687,-0.2699,-0.2699,-0.2717,-0.272,-0.2726,-0.2747,-0.2748,-0.2738,-0.2739,-0.2739,-0.274,0,0,0,0,0,0,0,-0.2632,-0.2635,-0.2669,-0.2666,-0.2667,-0.267,-0.2674,-0.2688,-0.2703,-0.2689,-0.2689,-0.2693,-0.2718,-0.2725,-0.2727,-0.2749,-0.2738,-0.2739,-0.274,-0.274,-0.278,-0.2781,0,0,0,0,0,0,-0.2628,-0.2634,-0.2668,-0.267,-0.265,-0.2671,-0.2675,-0.2683,-0.2703,-0.2706,-0.2693,-0.2693,-0.2722,-0.2725,-0.2728,-0.2743,-0.2739,-0.2741,-0.2741,-0.278,-0.278,-0.2781,0,0,0,0,0,0,-0.2627,-0.2631,-0.2667,-0.2652,-0.2657,-0.2672,-0.2681,-0.2683,-0.269,-0.2706,-0.2709,-0.2696,-0.2722,-0.2726,-0.2741,-0.2745,-0.2741,-0.2743,-0.278,-0.278,-0.278,-0.2774,0,0,0,0,0,0,-0.2626,-0.2631,-0.2635,-0.2652,-0.2658,-0.2679,-0.2681,-0.2684,-0.2692,-0.2693,-0.271,-0.2713,-0.2722,-0.2738,-0.2742,-0.2746,-0.2744,-0.278,-0.278,-0.278,-0.2774,-0.2774,-0.2774,0,0,0,0,0,-0.2624,-0.2633,-0.2635,-0.264,-0.2664,-0.2679,-0.2682,-0.2692,-0.2692,-0.2697,-0.2707,-0.2713,-0.2743,-0.274,-0.2744,-0.2749,-0.2779,-0.278,-0.278,-0.2774,-0.2774,-0.2774,0,0,0,0,0,0,-0.2617,-0.2635,-0.2638,-0.2653,-0.2664,-0.2681,-0.2687,-0.2692,-0.2704,-0.2705,-0.2717,-0.2721,-0.2734,-0.2743,-0.2739,-0.2761,-0.2762,-0.2763,-0.2755,-0.2756,-0.2756,-0.2754,-0.2745,0,0,0,0,0,-0.2616,-0.2627,-0.2643,-0.2654,-0.2659,-0.2672,-0.2679,-0.2686,-0.2699,-0.2704,-0.2715,-0.2728,-0.274,-0.2748,-0.2761,-0.2775,-0.2779,-0.278,-0.278,-0.278,-0.2781,-0.2789,-0.279,-0.2782,-0.2782,-0.2782,0,0,-0.2617,-0.2628,-0.2634,-0.2653,-0.2662,-0.2673,-0.2676,-0.2688,-0.2697,-0.2706,-0.272,-0.2729,-0.2744,-0.2758,-0.2765,-0.2766,-0.2784,-0.2781,-0.2781,-0.2782,-0.279,-0.2791,-0.2791,-0.2782,-0.2782,-0.2782,0,0,-0.2623,-0.2632,-0.2642,-0.2652,-0.2666,-0.2674,-0.2677,-0.2693,-0.2699,-0.2713,-0.272,-0.273,-0.2752,-0.2762,-0.277,-0.2778,-0.2783,-0.2782,-0.2783,-0.279,-0.2791,-0.2791,-0.2795,-0.2796,-0.2783,-0.2783,-0.2783,0,-0.2621,-0.2638,-0.2647,-0.2658,-0.2666,-0.2674,-0.2684,-0.2693,-0.2711,-0.2716,-0.2717,-0.2743,-0.2754,-0.277,-0.2772,-0.2778,-0.2782,-0.278,-0.279,-0.2791,-0.2791,-0.2795,-0.2796,-0.2783,-0.2783,-0.2783,-0.2783,0,-0.2635,-0.2647,-0.2653,-0.2669,-0.2678,-0.2689,-0.27,-0.2707,-0.2713,-0.2721,-0.2736,-0.2748,-0.2763,-0.2768,-0.2773,-0.2785,-0.2785,-0.2787,-0.2788,-0.2792,-0.2795,-0.2796,-0.2782,-0.2782,-0.2782,-0.2782,0,0,-0.2639,-0.2659,-0.2661,-0.2668,-0.2684,-0.2693,-0.2704,-0.2718,-0.2724,-0.2736,-0.2746,-0.2763,-0.2765,-0.2774,-0.2781,-0.2788,-0.2794,-0.2789,-0.279,-0.279,-0.2807,-0.2806,-0.2807,-0.2797,-0.2797,-0.2797,-0.2806,0,-0.2647,-0.2666,-0.2675,-0.2691,-0.2701,-0.2708,-0.2718,-0.2728,-0.2736,-0.2747,-0.2756,-0.2768,-0.2769,-0.2775,-0.2781,-0.2791,-0.2797,-0.2791,-0.2807,-0.2807,-0.2803,-0.2809,-0.2808,-0.2816,-0.2808,-0.2808,-0.2808,0,-0.266,-0.2671,-0.2687,-0.2701,-0.2706,-0.2714,-0.2727,-0.2737,-0.2749,-0.2755,-0.2764,-0.277,-0.2782,-0.2781,-0.2798,-0.2794,-0.28,-0.2806,-0.2807,-0.2809,-0.2808,-0.2812,-0.2818,-0.282,-0.281,-0.281,-0.281,0,-0.2661,-0.268,-0.2692,-0.2698,-0.2714,-0.272,-0.2727,-0.2739,-0.2747,-0.2758,-0.2764,-0.2776,-0.2784,-0.2794,-0.2803,-0.2802,-0.2819,-0.2819,-0.2824,-0.2824,-0.2828,-0.2828,-0.2836,-0.2832,-0.2832,-0.2832,-0.2832,0,-0.267,-0.268,-0.2692,-0.27,-0.2711,-0.2721,-0.2732,-0.274,-0.275,-0.276,-0.2766,-0.2775,-0.2787,-0.2798,-0.2805,-0.2818,-0.2821,-0.2826,-0.2828,-0.2826,-0.2825,-0.2831,-0.2831,-0.2832,-0.2832,-0.2832,-0.2832,0,-0.2673,-0.2682,-0.2696,-0.271,-0.2714,-0.2721,-0.2734,-0.2741,-0.2749,-0.2761,-0.2764,-0.2777,-0.2789,-0.28,-0.2816,-0.2821,-0.2835,-0.2837,-0.283,-0.2832,-0.2836,-0.2836,-0.2849,-0.2851,-0.2844,-0.2844,-0.2844,0,-0.2679,-0.2686,-0.2701,-0.2707,-0.2714,-0.2725,-0.2732,-0.2741,-0.2749,-0.2763,-0.2769,-0.2782,-0.2793,-0.2812,-0.2823,-0.2836,-0.2839,-0.2842,-0.2841,-0.2838,-0.2839,-0.2839,-0.284,-0.2843,-0.2843,-0.2843,-0.2843,0,-0.2687,-0.2691,-0.2701,-0.2713,-0.2721,-0.2731,-0.2741,-0.2746,-0.2757,-0.2765,-0.2778,-0.2786,-0.2802,-0.2815,-0.2829,-0.2837,-0.2842,-0.2843,-0.2845,-0.2843,-0.2839,-0.2841,-0.2831,-0.2843,-0.2843,-0.2843,-0.2843,-0.2843,-0.2692,-0.2699,-0.271,-0.2721,-0.273,-0.2738,-0.2746,-0.2754,-0.2765,-0.2778,-0.2783,-0.2796,-0.2808,-0.2826,-0.2834,-0.2844,-0.2845,-0.2848,-0.2849,-0.2849,-0.2849,-0.2836,-0.2847,-0.2847,-0.2847,-0.2847,-0.2847,0,-0.2702,-0.2709,-0.2719,-0.2732,-0.2741,-0.2743,-0.2754,-0.2761,-0.2772,-0.2783,-0.2793,-0.2807,-0.2819,-0.283,-0.2843,-0.2849,-0.2852,-0.2852,-0.2852,-0.2854,-0.2848,-0.2845,-0.285,-0.285,-0.285,-0.285,-0.285,-0.285,-0.2708,-0.272,-0.2725,-0.2741,-0.2748,-0.276,-0.2766,-0.2774,-0.2782,-0.2797,-0.2807,-0.2814,-0.2825,-0.2838,-0.2849,-0.2852,-0.2857,-0.2857,-0.286,-0.2855,-0.2854,-0.2854,-0.2851,-0.2858,-0.2858,-0.2866,-0.2866,-0.2866]},{"header":{"parameterUnit":"m.s-1","parameterCategory":1,"la1":30.2991,"la2":30.254,"lo1":-89.0895,"lo2":-89.0444,"dy":0.0017,"dx":0.0017,"nx":28,"ny":28,"refTime":"2025-03-24T09:00:00:Z","depth":0,"parameterNumber":3,"parameterNumberName":"V-component_of_WINDS"},"data":[0,0,0,0,0,0,0,0,0,0,0,0,0,0,0,0,0,0,0,0,0,0,0,0,0,0,0,0,0,0,0,0,0,0,0,0,0,0,0,0,0,0,0,0,0,0,0,0,0,0,0,0,0,0,0,0,0,0,-0.7979,-0.798,0,-0.803,-0.8031,-0.8032,-0.8077,-0.8077,-0.8078,-0.8078,-0.8127,-0.8128,-0.8129,0,0,0,0,0,0,0,0,0,0,0,0,0,-0.7917,-0.7918,-0.7979,-0.798,-0.798,-0.803,-0.8031,-0.8032,-0.8076,-0.8077,-0.8078,-0.8078,-0.8127,-0.8128,-0.8129,0,0,0,0,0,0,0,0,0,0,0,0,0,-0.7953,-0.7918,-0.7979,-0.8009,-0.8012,-0.803,-0.8031,-0.8032,-0.8076,-0.8077,-0.8078,-0.8079,-0.8127,-0.8128,-0.8129,-0.8121,0,0,-0.8133,-0.8133,0,0,0,0,0,0,0,0,-0.7951,-0.7956,-0.8004,-0.8007,-0.801,-0.8048,-0.8027,-0.8062,-0.8076,-0.8052,-0.8078,-0.8079,-0.81,-0.8103,-0.8111,-0.8123,-0.8125,-0.8133,-0.8134,-0.8134,-0.8134,0,0,0,0,0,0,0,-0.7949,-0.7954,-0.7999,-0.8004,-0.8008,-0.8019,-0.8025,-0.8034,-0.8071,-0.8054,-0.8057,-0.8063,-0.8102,-0.811,-0.8113,-0.8126,-0.8133,-0.8134,-0.8135,-0.8135,-0.8133,-0.8132,0,0,0,0,0,0,-0.7942,-0.7951,-0.7998,-0.8001,-0.7982,-0.8019,-0.8026,-0.8035,-0.8071,-0.8077,-0.8062,-0.8065,-0.8107,-0.8111,-0.8115,-0.8107,-0.8134,-0.8135,-0.8136,-0.8133,-0.8132,-0.8132,0,0,0,0,0,0,-0.7941,-0.7946,-0.7996,-0.7977,-0.7984,-0.8019,-0.8029,-0.8036,-0.8044,-0.8077,-0.8084,-0.8064,-0.8108,-0.8113,-0.8119,-0.8109,-0.8136,-0.8137,-0.8134,-0.8133,-0.8132,-0.8091,0,0,0,0,0,0,-0.7939,-0.7945,-0.7943,-0.7977,-0.7985,-0.8,-0.8029,-0.8036,-0.8046,-0.805,-0.808,-0.8086,-0.8109,-0.8117,-0.812,-0.8111,-0.8138,-0.8135,-0.8134,-0.8132,-0.8093,-0.8088,-0.8084,0,0,0,0,0,-0.7936,-0.7929,-0.7942,-0.7948,-0.7983,-0.7999,-0.8004,-0.8032,-0.8045,-0.8043,-0.8064,-0.8085,-0.811,-0.8117,-0.8121,-0.8112,-0.8136,-0.8134,-0.8132,-0.8095,-0.8089,-0.8084,0,0,0,0,0,0,-0.7891,-0.7933,-0.7949,-0.7953,-0.7972,-0.8007,-0.8005,-0.8025,-0.804,-0.8043,-0.8076,-0.8082,-0.8084,-0.8099,-0.8106,-0.8106,-0.8126,-0.8125,-0.8096,-0.809,-0.8086,-0.8082,-0.8139,0,0,0,0,0,-0.7882,-0.7893,-0.7928,-0.7928,-0.7937,-0.7969,-0.7977,-0.7997,-0.8018,-0.8026,-0.8048,-0.8066,-0.8078,-0.8085,-0.8098,-0.8096,-0.8102,-0.8092,-0.8087,-0.8083,-0.8081,-0.808,-0.8076,-0.8126,-0.8126,-0.8126,0,0,-0.7862,-0.7887,-0.7891,-0.7919,-0.7937,-0.7946,-0.7976,-0.7984,-0.799,-0.8027,-0.8034,-0.8051,-0.8074,-0.8075,-0.8077,-0.8088,-0.8069,-0.8081,-0.8078,-0.8078,-0.8078,-0.8073,-0.8069,-0.8124,-0.8125,-0.8125,0,0,-0.7831,-0.7851,-0.7853,-0.787,-0.7896,-0.7918,-0.7918,-0.795,-0.7963,-0.7971,-0.7998,-0.8006,-0.8026,-0.8041,-0.8051,-0.8026,-0.8045,-0.8029,-0.8005,-0.8003,-0.7999,-0.7996,-0.7986,-0.7982,-0.8028,-0.8028,-0.8028,0,-0.7803,-0.7819,-0.785,-0.7857,-0.7868,-0.7903,-0.7904,-0.7919,-0.7947,-0.7954,-0.7966,-0.7992,-0.801,-0.8015,-0.8009,-0.8016,-0.8017,-0.8025,-0.7998,-0.7995,-0.7992,-0.7982,-0.7979,-0.8025,-0.8026,-0.8026,-0.8026,0,-0.7782,-0.7793,-0.7791,-0.7818,-0.783,-0.7833,-0.7865,-0.7872,-0.7891,-0.7911,-0.7918,-0.7941,-0.7959,-0.7962,-0.798,-0.7969,-0.7975,-0.7992,-0.8012,-0.7984,-0.7976,-0.7973,-0.8022,-0.8023,-0.8024,-0.8024,0,0,-0.7723,-0.7769,-0.7768,-0.778,-0.7812,-0.7821,-0.7826,-0.7844,-0.7849,-0.7868,-0.7872,-0.7889,-0.7905,-0.7916,-0.7937,-0.7935,-0.7913,-0.7953,-0.7954,-0.7943,-0.7901,-0.7886,-0.7882,-0.7926,-0.7926,-0.7925,-0.7898,0,-0.7696,-0.7708,-0.7737,-0.7739,-0.7749,-0.7782,-0.7786,-0.7806,-0.7825,-0.7834,-0.7855,-0.7866,-0.7887,-0.7894,-0.7894,-0.7915,-0.7904,-0.7918,-0.7929,-0.7929,-0.792,-0.7878,-0.7863,-0.7836,-0.7895,-0.7895,-0.7894,0,-0.7665,-0.7683,-0.7687,-0.7718,-0.7723,-0.7727,-0.7746,-0.7755,-0.7778,-0.7791,-0.7805,-0.7827,-0.7833,-0.7853,-0.7861,-0.787,-0.7876,-0.7887,-0.7887,-0.7887,-0.7909,-0.7876,-0.7828,-0.7823,-0.789,-0.789,-0.789,0,-0.762,-0.7645,-0.765,-0.766,-0.7697,-0.7699,-0.7714,-0.7738,-0.7747,-0.7763,-0.7769,-0.7786,-0.7795,-0.7806,-0.7833,-0.7845,-0.7837,-0.7859,-0.7847,-0.7846,-0.7843,-0.7842,-0.7794,-0.7849,-0.7849,-0.7849,-0.7849,0,-0.7586,-0.7586,-0.763,-0.7633,-0.7635,-0.7668,-0.7668,-0.7686,-0.7707,-0.7713,-0.7743,-0.7748,-0.7783,-0.7792,-0.7813,-0.7815,-0.7819,-0.7829,-0.7834,-0.7826,-0.7824,-0.7829,-0.7831,-0.7848,-0.7848,-0.7849,-0.7849,0,-0.7535,-0.7564,-0.7572,-0.7607,-0.7616,-0.7615,-0.7644,-0.7648,-0.7669,-0.7677,-0.768,-0.7713,-0.7725,-0.7753,-0.7771,-0.7785,-0.7782,-0.7792,-0.7774,-0.7777,-0.7763,-0.7763,-0.7715,-0.771,-0.7769,-0.7769,-0.7768,0,-0.751,-0.7512,-0.7547,-0.7554,-0.7568,-0.7579,-0.7589,-0.7622,-0.763,-0.7656,-0.7656,-0.7671,-0.7684,-0.7701,-0.7725,-0.774,-0.775,-0.7732,-0.7752,-0.7743,-0.7748,-0.7747,-0.7746,-0.7727,-0.7726,-0.7725,-0.7725,0,-0.7463,-0.7478,-0.7492,-0.751,-0.7521,-0.7537,-0.7555,-0.7559,-0.7595,-0.7603,-0.7616,-0.7627,-0.7647,-0.766,-0.7678,-0.7693,-0.7714,-0.7719,-0.7716,-0.7707,-0.7696,-0.77,-0.7761,-0.7719,-0.772,-0.772,-0.7721,-0.7721,-0.7424,-0.7426,-0.7451,-0.7465,-0.7482,-0.7498,-0.7503,-0.7525,-0.7537,-0.7557,-0.7575,-0.7586,-0.7608,-0.7635,-0.7648,-0.7656,-0.7667,-0.7664,-0.7663,-0.7661,-0.7657,-0.7696,-0.766,-0.766,-0.766,-0.766,-0.766,0,-0.7377,-0.7395,-0.7408,-0.7432,-0.7442,-0.7464,-0.7484,-0.7491,-0.7501,-0.752,-0.7533,-0.7548,-0.7561,-0.7587,-0.7602,-0.7603,-0.7613,-0.7606,-0.7605,-0.7608,-0.7647,-0.7647,-0.7598,-0.7598,-0.7598,-0.7598,-0.7598,-0.7598,-0.7353,-0.7359,-0.7376,-0.739,-0.7408,-0.742,-0.7429,-0.7444,-0.7459,-0.7474,-0.7486,-0.7504,-0.7525,-0.7542,-0.7555,-0.7562,-0.7565,-0.7555,-0.7564,-0.76,-0.7606,-0.7611,-0.7611,-0.7555,-0.7555,-0.7525,-0.7525,-0.7525]}]]